Index of /20260427/WXO-DD/model_rdps/10km/06/067
Name Last modified Size Description
Parent Directory -
20260427T06Z_MSC_RDPS_AbsoluteVorticity_IsbL-0250_RLatLon0.09_PT067H.grib2 2026-04-27 09:01 633K
20260427T06Z_MSC_RDPS_AbsoluteVorticity_IsbL-0500_RLatLon0.09_PT067H.grib2 2026-04-27 09:01 574K
20260427T06Z_MSC_RDPS_AbsoluteVorticity_IsbL-0700_RLatLon0.09_PT067H.grib2 2026-04-27 09:01 624K
20260427T06Z_MSC_RDPS_AbsoluteVorticity_IsbL-0850_RLatLon0.09_PT067H.grib2 2026-04-27 09:01 768K
20260427T06Z_MSC_RDPS_AirTemp_AGL-120m_RLatLon0.09_PT067H.grib2 2026-04-27 09:01 383K
20260427T06Z_MSC_RDPS_AirTemp_AGL-2m_RLatLon0.09_PT067H.grib2 2026-04-27 09:01 616K
20260427T06Z_MSC_RDPS_AirTemp_AGL-40m_RLatLon0.09_PT067H.grib2 2026-04-27 09:01 394K
20260427T06Z_MSC_RDPS_AirTemp_AGL-80m_RLatLon0.09_PT067H.grib2 2026-04-27 09:01 387K
20260427T06Z_MSC_RDPS_AirTemp_IsbL-0001_RLatLon0.09_PT067H.grib2 2026-04-27 09:01 303K
20260427T06Z_MSC_RDPS_AirTemp_IsbL-0005_RLatLon0.09_PT067H.grib2 2026-04-27 09:01 290K
20260427T06Z_MSC_RDPS_AirTemp_IsbL-0010_RLatLon0.09_PT067H.grib2 2026-04-27 09:01 302K
20260427T06Z_MSC_RDPS_AirTemp_IsbL-0020_RLatLon0.09_PT067H.grib2 2026-04-27 09:01 314K
20260427T06Z_MSC_RDPS_AirTemp_IsbL-0030_RLatLon0.09_PT067H.grib2 2026-04-27 09:01 339K
20260427T06Z_MSC_RDPS_AirTemp_IsbL-0050_RLatLon0.09_PT067H.grib2 2026-04-27 09:01 313K
20260427T06Z_MSC_RDPS_AirTemp_IsbL-0100_RLatLon0.09_PT067H.grib2 2026-04-27 09:01 432K
20260427T06Z_MSC_RDPS_AirTemp_IsbL-0150_RLatLon0.09_PT067H.grib2 2026-04-27 09:01 430K
20260427T06Z_MSC_RDPS_AirTemp_IsbL-0175_RLatLon0.09_PT067H.grib2 2026-04-27 09:01 419K
20260427T06Z_MSC_RDPS_AirTemp_IsbL-0200_RLatLon0.09_PT067H.grib2 2026-04-27 09:01 423K
20260427T06Z_MSC_RDPS_AirTemp_IsbL-0225_RLatLon0.09_PT067H.grib2 2026-04-27 09:01 423K
20260427T06Z_MSC_RDPS_AirTemp_IsbL-0250_RLatLon0.09_PT067H.grib2 2026-04-27 09:01 433K
20260427T06Z_MSC_RDPS_AirTemp_IsbL-0275_RLatLon0.09_PT067H.grib2 2026-04-27 09:01 411K
20260427T06Z_MSC_RDPS_AirTemp_IsbL-0300_RLatLon0.09_PT067H.grib2 2026-04-27 09:01 418K
20260427T06Z_MSC_RDPS_AirTemp_IsbL-0350_RLatLon0.09_PT067H.grib2 2026-04-27 09:01 429K
20260427T06Z_MSC_RDPS_AirTemp_IsbL-0400_RLatLon0.09_PT067H.grib2 2026-04-27 09:01 430K
20260427T06Z_MSC_RDPS_AirTemp_IsbL-0450_RLatLon0.09_PT067H.grib2 2026-04-27 09:01 401K
20260427T06Z_MSC_RDPS_AirTemp_IsbL-0500_RLatLon0.09_PT067H.grib2 2026-04-27 09:01 411K
20260427T06Z_MSC_RDPS_AirTemp_IsbL-0550_RLatLon0.09_PT067H.grib2 2026-04-27 09:01 429K
20260427T06Z_MSC_RDPS_AirTemp_IsbL-0600_RLatLon0.09_PT067H.grib2 2026-04-27 09:01 449K
20260427T06Z_MSC_RDPS_AirTemp_IsbL-0650_RLatLon0.09_PT067H.grib2 2026-04-27 09:01 464K
20260427T06Z_MSC_RDPS_AirTemp_IsbL-0700_RLatLon0.09_PT067H.grib2 2026-04-27 09:01 379K
20260427T06Z_MSC_RDPS_AirTemp_IsbL-0750_RLatLon0.09_PT067H.grib2 2026-04-27 09:01 408K
20260427T06Z_MSC_RDPS_AirTemp_IsbL-0800_RLatLon0.09_PT067H.grib2 2026-04-27 09:01 443K
20260427T06Z_MSC_RDPS_AirTemp_IsbL-0850_RLatLon0.09_PT067H.grib2 2026-04-27 09:01 489K
20260427T06Z_MSC_RDPS_AirTemp_IsbL-0875_RLatLon0.09_PT067H.grib2 2026-04-27 09:01 510K
20260427T06Z_MSC_RDPS_AirTemp_IsbL-0900_RLatLon0.09_PT067H.grib2 2026-04-27 09:01 520K
20260427T06Z_MSC_RDPS_AirTemp_IsbL-0925_RLatLon0.09_PT067H.grib2 2026-04-27 09:01 517K
20260427T06Z_MSC_RDPS_AirTemp_IsbL-0950_RLatLon0.09_PT067H.grib2 2026-04-27 09:01 516K
20260427T06Z_MSC_RDPS_AirTemp_IsbL-0970_RLatLon0.09_PT067H.grib2 2026-04-27 09:01 508K
20260427T06Z_MSC_RDPS_AirTemp_IsbL-0985_RLatLon0.09_PT067H.grib2 2026-04-27 09:01 499K
20260427T06Z_MSC_RDPS_AirTemp_IsbL-1000_RLatLon0.09_PT067H.grib2 2026-04-27 09:01 487K
20260427T06Z_MSC_RDPS_AirTemp_IsbL-1015_RLatLon0.09_PT067H.grib2 2026-04-27 09:01 497K
20260427T06Z_MSC_RDPS_Albedo_Sfc_RLatLon0.09_PT067H.grib2 2026-04-27 09:01 160K
20260427T06Z_MSC_RDPS_CAPE_Sfc_RLatLon0.09_PT067H.grib2 2026-04-27 09:01 1.7M
20260427T06Z_MSC_RDPS_CIN_Sfc_RLatLon0.09_PT067H.grib2 2026-04-27 09:01 1.2M
20260427T06Z_MSC_RDPS_CloudWater_EAtm_RLatLon0.09_PT067H.grib2 2026-04-27 09:01 222K
20260427T06Z_MSC_RDPS_ConvectivePrecip-Accum_Sfc_RLatLon0.09_PT067H.grib2 2026-04-27 09:01 1.2M
20260427T06Z_MSC_RDPS_DewPointDepression_AGL-2m_RLatLon0.09_PT067H.grib2 2026-04-27 09:01 406K
20260427T06Z_MSC_RDPS_DewPointDepression_IsbL-0001_RLatLon0.09_PT067H.grib2 2026-04-27 09:01 193
20260427T06Z_MSC_RDPS_DewPointDepression_IsbL-0005_RLatLon0.09_PT067H.grib2 2026-04-27 09:01 193
20260427T06Z_MSC_RDPS_DewPointDepression_IsbL-0010_RLatLon0.09_PT067H.grib2 2026-04-27 09:01 193
20260427T06Z_MSC_RDPS_DewPointDepression_IsbL-0020_RLatLon0.09_PT067H.grib2 2026-04-27 09:01 193
20260427T06Z_MSC_RDPS_DewPointDepression_IsbL-0030_RLatLon0.09_PT067H.grib2 2026-04-27 09:01 193
20260427T06Z_MSC_RDPS_DewPointDepression_IsbL-0050_RLatLon0.09_PT067H.grib2 2026-04-27 09:01 81K
20260427T06Z_MSC_RDPS_DewPointDepression_IsbL-0100_RLatLon0.09_PT067H.grib2 2026-04-27 09:01 130K
20260427T06Z_MSC_RDPS_DewPointDepression_IsbL-0150_RLatLon0.09_PT067H.grib2 2026-04-27 09:01 153K
20260427T06Z_MSC_RDPS_DewPointDepression_IsbL-0175_RLatLon0.09_PT067H.grib2 2026-04-27 09:01 183K
20260427T06Z_MSC_RDPS_DewPointDepression_IsbL-0200_RLatLon0.09_PT067H.grib2 2026-04-27 09:01 222K
20260427T06Z_MSC_RDPS_DewPointDepression_IsbL-0225_RLatLon0.09_PT067H.grib2 2026-04-27 09:01 269K
20260427T06Z_MSC_RDPS_DewPointDepression_IsbL-0250_RLatLon0.09_PT067H.grib2 2026-04-27 09:01 306K
20260427T06Z_MSC_RDPS_DewPointDepression_IsbL-0275_RLatLon0.09_PT067H.grib2 2026-04-27 09:01 311K
20260427T06Z_MSC_RDPS_DewPointDepression_IsbL-0300_RLatLon0.09_PT067H.grib2 2026-04-27 09:01 331K
20260427T06Z_MSC_RDPS_DewPointDepression_IsbL-0350_RLatLon0.09_PT067H.grib2 2026-04-27 09:01 333K
20260427T06Z_MSC_RDPS_DewPointDepression_IsbL-0400_RLatLon0.09_PT067H.grib2 2026-04-27 09:01 342K
20260427T06Z_MSC_RDPS_DewPointDepression_IsbL-0450_RLatLon0.09_PT067H.grib2 2026-04-27 09:01 349K
20260427T06Z_MSC_RDPS_DewPointDepression_IsbL-0500_RLatLon0.09_PT067H.grib2 2026-04-27 09:01 356K
20260427T06Z_MSC_RDPS_DewPointDepression_IsbL-0550_RLatLon0.09_PT067H.grib2 2026-04-27 09:01 370K
20260427T06Z_MSC_RDPS_DewPointDepression_IsbL-0600_RLatLon0.09_PT067H.grib2 2026-04-27 09:01 384K
20260427T06Z_MSC_RDPS_DewPointDepression_IsbL-0650_RLatLon0.09_PT067H.grib2 2026-04-27 09:01 391K
20260427T06Z_MSC_RDPS_DewPointDepression_IsbL-0700_RLatLon0.09_PT067H.grib2 2026-04-27 09:01 399K
20260427T06Z_MSC_RDPS_DewPointDepression_IsbL-0750_RLatLon0.09_PT067H.grib2 2026-04-27 09:01 417K
20260427T06Z_MSC_RDPS_DewPointDepression_IsbL-0800_RLatLon0.09_PT067H.grib2 2026-04-27 09:01 440K
20260427T06Z_MSC_RDPS_DewPointDepression_IsbL-0850_RLatLon0.09_PT067H.grib2 2026-04-27 09:01 467K
20260427T06Z_MSC_RDPS_DewPointDepression_IsbL-0875_RLatLon0.09_PT067H.grib2 2026-04-27 09:01 472K
20260427T06Z_MSC_RDPS_DewPointDepression_IsbL-0900_RLatLon0.09_PT067H.grib2 2026-04-27 09:01 466K
20260427T06Z_MSC_RDPS_DewPointDepression_IsbL-0925_RLatLon0.09_PT067H.grib2 2026-04-27 09:01 452K
20260427T06Z_MSC_RDPS_DewPointDepression_IsbL-0950_RLatLon0.09_PT067H.grib2 2026-04-27 09:01 439K
20260427T06Z_MSC_RDPS_DewPointDepression_IsbL-0970_RLatLon0.09_PT067H.grib2 2026-04-27 09:01 427K
20260427T06Z_MSC_RDPS_DewPointDepression_IsbL-0985_RLatLon0.09_PT067H.grib2 2026-04-27 09:01 422K
20260427T06Z_MSC_RDPS_DewPointDepression_IsbL-1000_RLatLon0.09_PT067H.grib2 2026-04-27 09:01 418K
20260427T06Z_MSC_RDPS_DewPointDepression_IsbL-1015_RLatLon0.09_PT067H.grib2 2026-04-27 09:01 407K
20260427T06Z_MSC_RDPS_DewPoint_AGL-2m_RLatLon0.09_PT067H.grib2 2026-04-27 09:01 305K
20260427T06Z_MSC_RDPS_DownwardLongwaveRadiationFlux-Accum_Sfc_RLatLon0.09_PT067H.grib2 2026-04-27 09:01 419K
20260427T06Z_MSC_RDPS_DownwardShortwaveRadiationFlux-Accum_NTAtm_RLatLon0.09_PT067H.grib2 2026-04-27 09:01 109K
20260427T06Z_MSC_RDPS_DownwardShortwaveRadiationFlux-Accum_Sfc_RLatLon0.09_PT067H.grib2 2026-04-27 09:01 619K
20260427T06Z_MSC_RDPS_FreezingRain-Accum1h_Sfc_RLatLon0.09_PT067H.grib2 2026-04-27 09:01 15K
20260427T06Z_MSC_RDPS_FreezingRain-Accum_Sfc_RLatLon0.09_PT067H.grib2 2026-04-27 09:01 206K
20260427T06Z_MSC_RDPS_GeopotentialHeight_IsbL-0001_RLatLon0.09_PT067H.grib2 2026-04-27 09:01 239K
20260427T06Z_MSC_RDPS_GeopotentialHeight_IsbL-0005_RLatLon0.09_PT067H.grib2 2026-04-27 09:01 335K
20260427T06Z_MSC_RDPS_GeopotentialHeight_IsbL-0010_RLatLon0.09_PT067H.grib2 2026-04-27 09:01 302K
20260427T06Z_MSC_RDPS_GeopotentialHeight_IsbL-0020_RLatLon0.09_PT067H.grib2 2026-04-27 09:01 302K
20260427T06Z_MSC_RDPS_GeopotentialHeight_IsbL-0030_RLatLon0.09_PT067H.grib2 2026-04-27 09:01 303K
20260427T06Z_MSC_RDPS_GeopotentialHeight_IsbL-0050_RLatLon0.09_PT067H.grib2 2026-04-27 09:01 338K
20260427T06Z_MSC_RDPS_GeopotentialHeight_IsbL-0100_RLatLon0.09_PT067H.grib2 2026-04-27 09:01 284K
20260427T06Z_MSC_RDPS_GeopotentialHeight_IsbL-0150_RLatLon0.09_PT067H.grib2 2026-04-27 09:01 232K
20260427T06Z_MSC_RDPS_GeopotentialHeight_IsbL-0175_RLatLon0.09_PT067H.grib2 2026-04-27 09:01 266K
20260427T06Z_MSC_RDPS_GeopotentialHeight_IsbL-0200_RLatLon0.09_PT067H.grib2 2026-04-27 09:01 268K
20260427T06Z_MSC_RDPS_GeopotentialHeight_IsbL-0225_RLatLon0.09_PT067H.grib2 2026-04-27 09:01 268K
20260427T06Z_MSC_RDPS_GeopotentialHeight_IsbL-0250_RLatLon0.09_PT067H.grib2 2026-04-27 09:01 269K
20260427T06Z_MSC_RDPS_GeopotentialHeight_IsbL-0275_RLatLon0.09_PT067H.grib2 2026-04-27 09:01 268K
20260427T06Z_MSC_RDPS_GeopotentialHeight_IsbL-0300_RLatLon0.09_PT067H.grib2 2026-04-27 09:01 237K
20260427T06Z_MSC_RDPS_GeopotentialHeight_IsbL-0350_RLatLon0.09_PT067H.grib2 2026-04-27 09:01 232K
20260427T06Z_MSC_RDPS_GeopotentialHeight_IsbL-0400_RLatLon0.09_PT067H.grib2 2026-04-27 09:01 229K
20260427T06Z_MSC_RDPS_GeopotentialHeight_IsbL-0450_RLatLon0.09_PT067H.grib2 2026-04-27 09:01 297K
20260427T06Z_MSC_RDPS_GeopotentialHeight_IsbL-0500_RLatLon0.09_PT067H.grib2 2026-04-27 09:01 293K
20260427T06Z_MSC_RDPS_GeopotentialHeight_IsbL-0550_RLatLon0.09_PT067H.grib2 2026-04-27 09:01 289K
20260427T06Z_MSC_RDPS_GeopotentialHeight_IsbL-0600_RLatLon0.09_PT067H.grib2 2026-04-27 09:01 287K
20260427T06Z_MSC_RDPS_GeopotentialHeight_IsbL-0650_RLatLon0.09_PT067H.grib2 2026-04-27 09:01 255K
20260427T06Z_MSC_RDPS_GeopotentialHeight_IsbL-0700_RLatLon0.09_PT067H.grib2 2026-04-27 09:01 335K
20260427T06Z_MSC_RDPS_GeopotentialHeight_IsbL-0750_RLatLon0.09_PT067H.grib2 2026-04-27 09:01 336K
20260427T06Z_MSC_RDPS_GeopotentialHeight_IsbL-0800_RLatLon0.09_PT067H.grib2 2026-04-27 09:01 342K
20260427T06Z_MSC_RDPS_GeopotentialHeight_IsbL-0850_RLatLon0.09_PT067H.grib2 2026-04-27 09:01 381K
20260427T06Z_MSC_RDPS_GeopotentialHeight_IsbL-0875_RLatLon0.09_PT067H.grib2 2026-04-27 09:01 385K
20260427T06Z_MSC_RDPS_GeopotentialHeight_IsbL-0900_RLatLon0.09_PT067H.grib2 2026-04-27 09:01 390K
20260427T06Z_MSC_RDPS_GeopotentialHeight_IsbL-0925_RLatLon0.09_PT067H.grib2 2026-04-27 09:01 392K
20260427T06Z_MSC_RDPS_GeopotentialHeight_IsbL-0950_RLatLon0.09_PT067H.grib2 2026-04-27 09:01 395K
20260427T06Z_MSC_RDPS_GeopotentialHeight_IsbL-0970_RLatLon0.09_PT067H.grib2 2026-04-27 09:01 400K
20260427T06Z_MSC_RDPS_GeopotentialHeight_IsbL-0985_RLatLon0.09_PT067H.grib2 2026-04-27 09:01 408K
20260427T06Z_MSC_RDPS_GeopotentialHeight_IsbL-1000_RLatLon0.09_PT067H.grib2 2026-04-27 09:01 420K
20260427T06Z_MSC_RDPS_GeopotentialHeight_IsbL-1015_RLatLon0.09_PT067H.grib2 2026-04-27 09:01 435K
20260427T06Z_MSC_RDPS_Humidex_Sfc_RLatLon0.09_PT067H.grib2 2026-04-27 09:01 2.4M
20260427T06Z_MSC_RDPS_IcePellets-Accum1h_Sfc_RLatLon0.09_PT067H.grib2 2026-04-27 09:01 2.2K
20260427T06Z_MSC_RDPS_IcePellets-Accum_Sfc_RLatLon0.09_PT067H.grib2 2026-04-27 09:01 30K
20260427T06Z_MSC_RDPS_KIndex_Sfc_RLatLon0.09_PT067H.grib2 2026-04-27 09:01 2.5M
20260427T06Z_MSC_RDPS_LatentHeatNetFlux_Sfc_RLatLon0.09_PT067H.grib2 2026-04-27 09:01 333K
20260427T06Z_MSC_RDPS_LiftedIndex-MU-VT_IsbL-0500_RLatLon0.09_PT067H.grib2 2026-04-27 09:01 2.4M
20260427T06Z_MSC_RDPS_NetLongwaveRadiationFlux-Accum_Sfc_RLatLon0.09_PT067H.grib2 2026-04-27 09:01 464K
20260427T06Z_MSC_RDPS_NetShortwaveRadiationFlux-Accum_Sfc_RLatLon0.09_PT067H.grib2 2026-04-27 09:01 621K
20260427T06Z_MSC_RDPS_PlanetaryBoundaryLayerHeight_Sfc_RLatLon0.09_PT067H.grib2 2026-04-27 09:01 1.0M
20260427T06Z_MSC_RDPS_Precip-Accum1h_Sfc_RLatLon0.09_PT067H.grib2 2026-04-27 09:01 1.2M
20260427T06Z_MSC_RDPS_Precip-Accum_Sfc_RLatLon0.09_PT067H.grib2 2026-04-27 09:01 2.2M
20260427T06Z_MSC_RDPS_PrecipRate_Sfc_RLatLon0.09_PT067H.grib2 2026-04-27 09:01 157K
20260427T06Z_MSC_RDPS_PrecipType-Instant_Sfc_RLatLon0.09_PT067H.grib2 2026-04-27 09:01 545K
20260427T06Z_MSC_RDPS_Pressure-Trend3h_Sfc_RLatLon0.09_PT067H.grib2 2026-04-27 09:01 1.2M
20260427T06Z_MSC_RDPS_Pressure_MSL_RLatLon0.09_PT067H.grib2 2026-04-27 09:01 324K
20260427T06Z_MSC_RDPS_Pressure_PVU-1.5_RLatLon0.09_PT067H.grib2 2026-04-27 09:01 2.5M
20260427T06Z_MSC_RDPS_Pressure_PVU-1_RLatLon0.09_PT067H.grib2 2026-04-27 09:01 2.4M
20260427T06Z_MSC_RDPS_Pressure_PVU-2_RLatLon0.09_PT067H.grib2 2026-04-27 09:01 2.4M
20260427T06Z_MSC_RDPS_Pressure_Sfc_RLatLon0.09_PT067H.grib2 2026-04-27 09:01 498K
20260427T06Z_MSC_RDPS_RadiativeTemp_Sfc_RLatLon0.09_PT067H.grib2 2026-04-27 09:01 304K
20260427T06Z_MSC_RDPS_Rain-Accum1h_Sfc_RLatLon0.09_PT067H.grib2 2026-04-27 09:01 508K
20260427T06Z_MSC_RDPS_Rain-Accum_Sfc_RLatLon0.09_PT067H.grib2 2026-04-27 09:01 1.7M
20260427T06Z_MSC_RDPS_RelativeHumidity_AGL-2m_RLatLon0.09_PT067H.grib2 2026-04-27 09:01 1.0M
20260427T06Z_MSC_RDPS_RelativeHumidity_IsbL-0010_RLatLon0.09_PT067H.grib2 2026-04-27 09:01 620K
20260427T06Z_MSC_RDPS_RelativeHumidity_IsbL-0020_RLatLon0.09_PT067H.grib2 2026-04-27 09:01 638K
20260427T06Z_MSC_RDPS_RelativeHumidity_IsbL-0030_RLatLon0.09_PT067H.grib2 2026-04-27 09:01 603K
20260427T06Z_MSC_RDPS_RelativeHumidity_IsbL-0050_RLatLon0.09_PT067H.grib2 2026-04-27 09:01 320K
20260427T06Z_MSC_RDPS_RelativeHumidity_IsbL-0100_RLatLon0.09_PT067H.grib2 2026-04-27 09:01 286K
20260427T06Z_MSC_RDPS_RelativeHumidity_IsbL-0150_RLatLon0.09_PT067H.grib2 2026-04-27 09:01 422K
20260427T06Z_MSC_RDPS_RelativeHumidity_IsbL-0175_RLatLon0.09_PT067H.grib2 2026-04-27 09:01 494K
20260427T06Z_MSC_RDPS_RelativeHumidity_IsbL-0200_RLatLon0.09_PT067H.grib2 2026-04-27 09:01 569K
20260427T06Z_MSC_RDPS_RelativeHumidity_IsbL-0225_RLatLon0.09_PT067H.grib2 2026-04-27 09:01 636K
20260427T06Z_MSC_RDPS_RelativeHumidity_IsbL-0250_RLatLon0.09_PT067H.grib2 2026-04-27 09:01 708K
20260427T06Z_MSC_RDPS_RelativeHumidity_IsbL-0275_RLatLon0.09_PT067H.grib2 2026-04-27 09:01 731K
20260427T06Z_MSC_RDPS_RelativeHumidity_IsbL-0300_RLatLon0.09_PT067H.grib2 2026-04-27 09:01 773K
20260427T06Z_MSC_RDPS_RelativeHumidity_IsbL-0350_RLatLon0.09_PT067H.grib2 2026-04-27 09:01 787K
20260427T06Z_MSC_RDPS_RelativeHumidity_IsbL-0400_RLatLon0.09_PT067H.grib2 2026-04-27 09:01 799K
20260427T06Z_MSC_RDPS_RelativeHumidity_IsbL-0450_RLatLon0.09_PT067H.grib2 2026-04-27 09:01 801K
20260427T06Z_MSC_RDPS_RelativeHumidity_IsbL-0500_RLatLon0.09_PT067H.grib2 2026-04-27 09:01 806K
20260427T06Z_MSC_RDPS_RelativeHumidity_IsbL-0550_RLatLon0.09_PT067H.grib2 2026-04-27 09:01 824K
20260427T06Z_MSC_RDPS_RelativeHumidity_IsbL-0600_RLatLon0.09_PT067H.grib2 2026-04-27 09:01 857K
20260427T06Z_MSC_RDPS_RelativeHumidity_IsbL-0650_RLatLon0.09_PT067H.grib2 2026-04-27 09:01 861K
20260427T06Z_MSC_RDPS_RelativeHumidity_IsbL-0700_RLatLon0.09_PT067H.grib2 2026-04-27 09:01 883K
20260427T06Z_MSC_RDPS_RelativeHumidity_IsbL-0750_RLatLon0.09_PT067H.grib2 2026-04-27 09:01 920K
20260427T06Z_MSC_RDPS_RelativeHumidity_IsbL-0800_RLatLon0.09_PT067H.grib2 2026-04-27 09:01 1.0M
20260427T06Z_MSC_RDPS_RelativeHumidity_IsbL-0850_RLatLon0.09_PT067H.grib2 2026-04-27 09:01 1.0M
20260427T06Z_MSC_RDPS_RelativeHumidity_IsbL-0875_RLatLon0.09_PT067H.grib2 2026-04-27 09:01 1.0M
20260427T06Z_MSC_RDPS_RelativeHumidity_IsbL-0900_RLatLon0.09_PT067H.grib2 2026-04-27 09:01 1.1M
20260427T06Z_MSC_RDPS_RelativeHumidity_IsbL-0925_RLatLon0.09_PT067H.grib2 2026-04-27 09:01 1.1M
20260427T06Z_MSC_RDPS_RelativeHumidity_IsbL-0950_RLatLon0.09_PT067H.grib2 2026-04-27 09:01 1.0M
20260427T06Z_MSC_RDPS_RelativeHumidity_IsbL-0970_RLatLon0.09_PT067H.grib2 2026-04-27 09:01 1.0M
20260427T06Z_MSC_RDPS_RelativeHumidity_IsbL-0985_RLatLon0.09_PT067H.grib2 2026-04-27 09:01 1.0M
20260427T06Z_MSC_RDPS_RelativeHumidity_IsbL-1000_RLatLon0.09_PT067H.grib2 2026-04-27 09:01 1.0M
20260427T06Z_MSC_RDPS_RelativeHumidity_IsbL-1015_RLatLon0.09_PT067H.grib2 2026-04-27 09:01 1.0M
20260427T06Z_MSC_RDPS_Runoff-Accum_Sfc_RLatLon0.09_PT067H.grib2 2026-04-27 09:01 58K
20260427T06Z_MSC_RDPS_SWEATIndex_Sfc_RLatLon0.09_PT067H.grib2 2026-04-27 09:01 2.4M
20260427T06Z_MSC_RDPS_SeeingIndex_EAtm_RLatLon0.09_PT067H.grib2 2026-04-27 09:01 1.0M
20260427T06Z_MSC_RDPS_SensibleHeatNetFlux_Sfc_RLatLon0.09_PT067H.grib2 2026-04-27 09:01 297K
20260427T06Z_MSC_RDPS_ShowalterIndex_IsbL-0500_RLatLon0.09_PT067H.grib2 2026-04-27 09:01 2.6M
20260427T06Z_MSC_RDPS_SkyTransparencyIndex_EAtm_RLatLon0.09_PT067H.grib2 2026-04-27 09:01 685K
20260427T06Z_MSC_RDPS_Snow-Accum1h_Sfc_RLatLon0.09_PT067H.grib2 2026-04-27 09:01 459K
20260427T06Z_MSC_RDPS_Snow-Accum_Sfc_RLatLon0.09_PT067H.grib2 2026-04-27 09:01 831K
20260427T06Z_MSC_RDPS_SnowDensity_Sfc_RLatLon0.09_PT067H.grib2 2026-04-27 09:01 186K
20260427T06Z_MSC_RDPS_SnowDepth_Sfc_RLatLon0.09_PT067H.grib2 2026-04-27 09:01 695K
20260427T06Z_MSC_RDPS_SoilTemp_DBS-0to10cm_RLatLon0.09_PT067H.grib2 2026-04-27 09:01 242K
20260427T06Z_MSC_RDPS_SoilTemp_Sfc_RLatLon0.09_PT067H.grib2 2026-04-27 09:01 270K
20260427T06Z_MSC_RDPS_SoilVolumetricIceContent_Sfc_RLatLon0.09_PT067H.grib2 2026-04-27 09:01 165K
20260427T06Z_MSC_RDPS_SoilVolumetricWaterContent_DBS-0to10cm_RLatLon0.09_PT067H.grib2 2026-04-27 09:01 267K
20260427T06Z_MSC_RDPS_SoilVolumetricWaterContent_DBS-0to1cm_RLatLon0.09_PT067H.grib2 2026-04-27 09:01 337K
20260427T06Z_MSC_RDPS_SpecificHumidity_AGL-120m_RLatLon0.09_PT067H.grib2 2026-04-27 09:01 482K
20260427T06Z_MSC_RDPS_SpecificHumidity_AGL-2m_RLatLon0.09_PT067H.grib2 2026-04-27 09:01 649K
20260427T06Z_MSC_RDPS_SpecificHumidity_AGL-40m_RLatLon0.09_PT067H.grib2 2026-04-27 09:01 488K
20260427T06Z_MSC_RDPS_SpecificHumidity_AGL-80m_RLatLon0.09_PT067H.grib2 2026-04-27 09:01 483K
20260427T06Z_MSC_RDPS_SpecificHumidity_IsbL-0001_RLatLon0.09_PT067H.grib2 2026-04-27 09:01 351K
20260427T06Z_MSC_RDPS_SpecificHumidity_IsbL-0005_RLatLon0.09_PT067H.grib2 2026-04-27 09:01 354K
20260427T06Z_MSC_RDPS_SpecificHumidity_IsbL-0010_RLatLon0.09_PT067H.grib2 2026-04-27 09:01 392K
20260427T06Z_MSC_RDPS_SpecificHumidity_IsbL-0020_RLatLon0.09_PT067H.grib2 2026-04-27 09:01 379K
20260427T06Z_MSC_RDPS_SpecificHumidity_IsbL-0030_RLatLon0.09_PT067H.grib2 2026-04-27 09:01 439K
20260427T06Z_MSC_RDPS_SpecificHumidity_IsbL-0050_RLatLon0.09_PT067H.grib2 2026-04-27 09:01 448K
20260427T06Z_MSC_RDPS_SpecificHumidity_IsbL-0100_RLatLon0.09_PT067H.grib2 2026-04-27 09:01 354K
20260427T06Z_MSC_RDPS_SpecificHumidity_IsbL-0150_RLatLon0.09_PT067H.grib2 2026-04-27 09:01 464K
20260427T06Z_MSC_RDPS_SpecificHumidity_IsbL-0175_RLatLon0.09_PT067H.grib2 2026-04-27 09:01 450K
20260427T06Z_MSC_RDPS_SpecificHumidity_IsbL-0200_RLatLon0.09_PT067H.grib2 2026-04-27 09:01 466K
20260427T06Z_MSC_RDPS_SpecificHumidity_IsbL-0225_RLatLon0.09_PT067H.grib2 2026-04-27 09:01 468K
20260427T06Z_MSC_RDPS_SpecificHumidity_IsbL-0250_RLatLon0.09_PT067H.grib2 2026-04-27 09:01 574K
20260427T06Z_MSC_RDPS_SpecificHumidity_IsbL-0275_RLatLon0.09_PT067H.grib2 2026-04-27 09:01 484K
20260427T06Z_MSC_RDPS_SpecificHumidity_IsbL-0300_RLatLon0.09_PT067H.grib2 2026-04-27 09:01 582K
20260427T06Z_MSC_RDPS_SpecificHumidity_IsbL-0350_RLatLon0.09_PT067H.grib2 2026-04-27 09:01 445K
20260427T06Z_MSC_RDPS_SpecificHumidity_IsbL-0400_RLatLon0.09_PT067H.grib2 2026-04-27 09:01 524K
20260427T06Z_MSC_RDPS_SpecificHumidity_IsbL-0450_RLatLon0.09_PT067H.grib2 2026-04-27 09:01 574K
20260427T06Z_MSC_RDPS_SpecificHumidity_IsbL-0500_RLatLon0.09_PT067H.grib2 2026-04-27 09:01 510K
20260427T06Z_MSC_RDPS_SpecificHumidity_IsbL-0550_RLatLon0.09_PT067H.grib2 2026-04-27 09:01 586K
20260427T06Z_MSC_RDPS_SpecificHumidity_IsbL-0600_RLatLon0.09_PT067H.grib2 2026-04-27 09:01 643K
20260427T06Z_MSC_RDPS_SpecificHumidity_IsbL-0650_RLatLon0.09_PT067H.grib2 2026-04-27 09:01 563K
20260427T06Z_MSC_RDPS_SpecificHumidity_IsbL-0700_RLatLon0.09_PT067H.grib2 2026-04-27 09:01 606K
20260427T06Z_MSC_RDPS_SpecificHumidity_IsbL-0750_RLatLon0.09_PT067H.grib2 2026-04-27 09:01 655K
20260427T06Z_MSC_RDPS_SpecificHumidity_IsbL-0800_RLatLon0.09_PT067H.grib2 2026-04-27 09:01 727K
20260427T06Z_MSC_RDPS_SpecificHumidity_IsbL-0850_RLatLon0.09_PT067H.grib2 2026-04-27 09:01 661K
20260427T06Z_MSC_RDPS_SpecificHumidity_IsbL-0875_RLatLon0.09_PT067H.grib2 2026-04-27 09:01 687K
20260427T06Z_MSC_RDPS_SpecificHumidity_IsbL-0900_RLatLon0.09_PT067H.grib2 2026-04-27 09:01 702K
20260427T06Z_MSC_RDPS_SpecificHumidity_IsbL-0925_RLatLon0.09_PT067H.grib2 2026-04-27 09:01 703K
20260427T06Z_MSC_RDPS_SpecificHumidity_IsbL-0950_RLatLon0.09_PT067H.grib2 2026-04-27 09:01 700K
20260427T06Z_MSC_RDPS_SpecificHumidity_IsbL-0970_RLatLon0.09_PT067H.grib2 2026-04-27 09:01 686K
20260427T06Z_MSC_RDPS_SpecificHumidity_IsbL-0985_RLatLon0.09_PT067H.grib2 2026-04-27 09:01 676K
20260427T06Z_MSC_RDPS_SpecificHumidity_IsbL-1000_RLatLon0.09_PT067H.grib2 2026-04-27 09:01 669K
20260427T06Z_MSC_RDPS_SpecificHumidity_IsbL-1015_RLatLon0.09_PT067H.grib2 2026-04-27 09:01 659K
20260427T06Z_MSC_RDPS_SpecificHumidity_Sfc_RLatLon0.09_PT067H.grib2 2026-04-27 09:01 320K
20260427T06Z_MSC_RDPS_StormRelativeHelicity_EtaL-10000_RLatLon0.09_PT067H.grib2 2026-04-27 09:01 1.1M
20260427T06Z_MSC_RDPS_StormSeverityIndex_EtaL-10000_RLatLon0.09_PT067H.grib2 2026-04-27 09:01 1.1M
20260427T06Z_MSC_RDPS_Thickness_IsbL-0850to0700_RLatLon0.09_PT067H.grib2 2026-04-27 09:01 177K
20260427T06Z_MSC_RDPS_Thickness_IsbL-1000to0500_RLatLon0.09_PT067H.grib2 2026-04-27 09:01 200K
20260427T06Z_MSC_RDPS_Thickness_IsbL-1000to0850_RLatLon0.09_PT067H.grib2 2026-04-27 09:01 183K
20260427T06Z_MSC_RDPS_TotalCloudCover_Sfc_RLatLon0.09_PT067H.grib2 2026-04-27 09:01 652K
20260427T06Z_MSC_RDPS_TotalTotalsIndex_Sfc_RLatLon0.09_PT067H.grib2 2026-04-27 09:01 2.4M
20260427T06Z_MSC_RDPS_UVIndex-ClearSky_Sfc_RLatLon0.09_PT067H.grib2 2026-04-27 09:01 141K
20260427T06Z_MSC_RDPS_UVIndex_Sfc_RLatLon0.09_PT067H.grib2 2026-04-27 09:01 323K
20260427T06Z_MSC_RDPS_UpwardLongwaveRadiationFlux_NTAtm_RLatLon0.09_PT067H.grib2 2026-04-27 09:01 502K
20260427T06Z_MSC_RDPS_UpwardShortwaveRadiationFlux_NTAtm_RLatLon0.09_PT067H.grib2 2026-04-27 09:01 298K
20260427T06Z_MSC_RDPS_VerticalVelocity_IsbL-0250_RLatLon0.09_PT067H.grib2 2026-04-27 09:01 557K
20260427T06Z_MSC_RDPS_VerticalVelocity_IsbL-0500_RLatLon0.09_PT067H.grib2 2026-04-27 09:01 544K
20260427T06Z_MSC_RDPS_VerticalVelocity_IsbL-0700_RLatLon0.09_PT067H.grib2 2026-04-27 09:01 595K
20260427T06Z_MSC_RDPS_VerticalVelocity_IsbL-0850_RLatLon0.09_PT067H.grib2 2026-04-27 09:01 675K
20260427T06Z_MSC_RDPS_VerticalWindShear_EtaL-6500_RLatLon0.09_PT067H.grib2 2026-04-27 09:01 1.2M
20260427T06Z_MSC_RDPS_WindChill_Sfc_RLatLon0.09_PT067H.grib2 2026-04-27 09:01 1.1M
20260427T06Z_MSC_RDPS_WindDir_AGL-10m_RLatLon0.09_PT067H.grib2 2026-04-27 09:01 951K
20260427T06Z_MSC_RDPS_WindDir_AGL-120m_RLatLon0.09_PT067H.grib2 2026-04-27 09:01 600K
20260427T06Z_MSC_RDPS_WindDir_AGL-40m_RLatLon0.09_PT067H.grib2 2026-04-27 09:01 625K
20260427T06Z_MSC_RDPS_WindDir_AGL-80m_RLatLon0.09_PT067H.grib2 2026-04-27 09:01 610K
20260427T06Z_MSC_RDPS_WindDir_IsbL-0001_RLatLon0.09_PT067H.grib2 2026-04-27 09:01 305K
20260427T06Z_MSC_RDPS_WindDir_IsbL-0005_RLatLon0.09_PT067H.grib2 2026-04-27 09:01 357K
20260427T06Z_MSC_RDPS_WindDir_IsbL-0010_RLatLon0.09_PT067H.grib2 2026-04-27 09:01 391K
20260427T06Z_MSC_RDPS_WindDir_IsbL-0020_RLatLon0.09_PT067H.grib2 2026-04-27 09:01 407K
20260427T06Z_MSC_RDPS_WindDir_IsbL-0030_RLatLon0.09_PT067H.grib2 2026-04-27 09:01 420K
20260427T06Z_MSC_RDPS_WindDir_IsbL-0050_RLatLon0.09_PT067H.grib2 2026-04-27 09:01 427K
20260427T06Z_MSC_RDPS_WindDir_IsbL-0100_RLatLon0.09_PT067H.grib2 2026-04-27 09:01 432K
20260427T06Z_MSC_RDPS_WindDir_IsbL-0150_RLatLon0.09_PT067H.grib2 2026-04-27 09:01 413K
20260427T06Z_MSC_RDPS_WindDir_IsbL-0175_RLatLon0.09_PT067H.grib2 2026-04-27 09:01 439K
20260427T06Z_MSC_RDPS_WindDir_IsbL-0200_RLatLon0.09_PT067H.grib2 2026-04-27 09:01 451K
20260427T06Z_MSC_RDPS_WindDir_IsbL-0225_RLatLon0.09_PT067H.grib2 2026-04-27 09:01 453K
20260427T06Z_MSC_RDPS_WindDir_IsbL-0250_RLatLon0.09_PT067H.grib2 2026-04-27 09:01 458K
20260427T06Z_MSC_RDPS_WindDir_IsbL-0275_RLatLon0.09_PT067H.grib2 2026-04-27 09:01 481K
20260427T06Z_MSC_RDPS_WindDir_IsbL-0300_RLatLon0.09_PT067H.grib2 2026-04-27 09:01 476K
20260427T06Z_MSC_RDPS_WindDir_IsbL-0350_RLatLon0.09_PT067H.grib2 2026-04-27 09:01 500K
20260427T06Z_MSC_RDPS_WindDir_IsbL-0400_RLatLon0.09_PT067H.grib2 2026-04-27 09:01 518K
20260427T06Z_MSC_RDPS_WindDir_IsbL-0450_RLatLon0.09_PT067H.grib2 2026-04-27 09:01 530K
20260427T06Z_MSC_RDPS_WindDir_IsbL-0500_RLatLon0.09_PT067H.grib2 2026-04-27 09:01 546K
20260427T06Z_MSC_RDPS_WindDir_IsbL-0550_RLatLon0.09_PT067H.grib2 2026-04-27 09:01 563K
20260427T06Z_MSC_RDPS_WindDir_IsbL-0600_RLatLon0.09_PT067H.grib2 2026-04-27 09:01 593K
20260427T06Z_MSC_RDPS_WindDir_IsbL-0650_RLatLon0.09_PT067H.grib2 2026-04-27 09:01 635K
20260427T06Z_MSC_RDPS_WindDir_IsbL-0700_RLatLon0.09_PT067H.grib2 2026-04-27 09:01 680K
20260427T06Z_MSC_RDPS_WindDir_IsbL-0750_RLatLon0.09_PT067H.grib2 2026-04-27 09:01 726K
20260427T06Z_MSC_RDPS_WindDir_IsbL-0800_RLatLon0.09_PT067H.grib2 2026-04-27 09:01 783K
20260427T06Z_MSC_RDPS_WindDir_IsbL-0850_RLatLon0.09_PT067H.grib2 2026-04-27 09:01 854K
20260427T06Z_MSC_RDPS_WindDir_IsbL-0875_RLatLon0.09_PT067H.grib2 2026-04-27 09:01 877K
20260427T06Z_MSC_RDPS_WindDir_IsbL-0900_RLatLon0.09_PT067H.grib2 2026-04-27 09:01 894K
20260427T06Z_MSC_RDPS_WindDir_IsbL-0925_RLatLon0.09_PT067H.grib2 2026-04-27 09:01 903K
20260427T06Z_MSC_RDPS_WindDir_IsbL-0950_RLatLon0.09_PT067H.grib2 2026-04-27 09:01 903K
20260427T06Z_MSC_RDPS_WindDir_IsbL-0970_RLatLon0.09_PT067H.grib2 2026-04-27 09:01 909K
20260427T06Z_MSC_RDPS_WindDir_IsbL-0985_RLatLon0.09_PT067H.grib2 2026-04-27 09:01 918K
20260427T06Z_MSC_RDPS_WindDir_IsbL-1000_RLatLon0.09_PT067H.grib2 2026-04-27 09:01 930K
20260427T06Z_MSC_RDPS_WindDir_IsbL-1015_RLatLon0.09_PT067H.grib2 2026-04-27 09:01 944K
20260427T06Z_MSC_RDPS_WindGust-Max_AGL-10m_RLatLon0.09_PT067H.grib2 2026-04-27 09:01 1.0M
20260427T06Z_MSC_RDPS_WindGust-Min_AGL-10m_RLatLon0.09_PT067H.grib2 2026-04-27 09:01 968K
20260427T06Z_MSC_RDPS_WindGust_AGL-10m_RLatLon0.09_PT067H.grib2 2026-04-27 09:01 1.0M
20260427T06Z_MSC_RDPS_WindSpeed_AGL-10m_RLatLon0.09_PT067H.grib2 2026-04-27 09:01 826K
20260427T06Z_MSC_RDPS_WindSpeed_AGL-120m_RLatLon0.09_PT067H.grib2 2026-04-27 09:01 526K
20260427T06Z_MSC_RDPS_WindSpeed_AGL-40m_RLatLon0.09_PT067H.grib2 2026-04-27 09:01 530K
20260427T06Z_MSC_RDPS_WindSpeed_AGL-80m_RLatLon0.09_PT067H.grib2 2026-04-27 09:01 527K
20260427T06Z_MSC_RDPS_WindSpeed_IsbL-0001_RLatLon0.09_PT067H.grib2 2026-04-27 09:01 251K
20260427T06Z_MSC_RDPS_WindSpeed_IsbL-0005_RLatLon0.09_PT067H.grib2 2026-04-27 09:01 385K
20260427T06Z_MSC_RDPS_WindSpeed_IsbL-0010_RLatLon0.09_PT067H.grib2 2026-04-27 09:01 400K
20260427T06Z_MSC_RDPS_WindSpeed_IsbL-0020_RLatLon0.09_PT067H.grib2 2026-04-27 09:01 323K
20260427T06Z_MSC_RDPS_WindSpeed_IsbL-0030_RLatLon0.09_PT067H.grib2 2026-04-27 09:01 321K
20260427T06Z_MSC_RDPS_WindSpeed_IsbL-0050_RLatLon0.09_PT067H.grib2 2026-04-27 09:01 455K
20260427T06Z_MSC_RDPS_WindSpeed_IsbL-0100_RLatLon0.09_PT067H.grib2 2026-04-27 09:01 487K
20260427T06Z_MSC_RDPS_WindSpeed_IsbL-0150_RLatLon0.09_PT067H.grib2 2026-04-27 09:01 390K
20260427T06Z_MSC_RDPS_WindSpeed_IsbL-0175_RLatLon0.09_PT067H.grib2 2026-04-27 09:01 439K
20260427T06Z_MSC_RDPS_WindSpeed_IsbL-0200_RLatLon0.09_PT067H.grib2 2026-04-27 09:01 455K
20260427T06Z_MSC_RDPS_WindSpeed_IsbL-0225_RLatLon0.09_PT067H.grib2 2026-04-27 09:01 460K
20260427T06Z_MSC_RDPS_WindSpeed_IsbL-0250_RLatLon0.09_PT067H.grib2 2026-04-27 09:01 464K
20260427T06Z_MSC_RDPS_WindSpeed_IsbL-0275_RLatLon0.09_PT067H.grib2 2026-04-27 09:01 483K
20260427T06Z_MSC_RDPS_WindSpeed_IsbL-0300_RLatLon0.09_PT067H.grib2 2026-04-27 09:01 478K
20260427T06Z_MSC_RDPS_WindSpeed_IsbL-0350_RLatLon0.09_PT067H.grib2 2026-04-27 09:01 489K
20260427T06Z_MSC_RDPS_WindSpeed_IsbL-0400_RLatLon0.09_PT067H.grib2 2026-04-27 09:01 489K
20260427T06Z_MSC_RDPS_WindSpeed_IsbL-0450_RLatLon0.09_PT067H.grib2 2026-04-27 09:01 471K
20260427T06Z_MSC_RDPS_WindSpeed_IsbL-0500_RLatLon0.09_PT067H.grib2 2026-04-27 09:01 589K
20260427T06Z_MSC_RDPS_WindSpeed_IsbL-0550_RLatLon0.09_PT067H.grib2 2026-04-27 09:01 588K
20260427T06Z_MSC_RDPS_WindSpeed_IsbL-0600_RLatLon0.09_PT067H.grib2 2026-04-27 09:01 596K
20260427T06Z_MSC_RDPS_WindSpeed_IsbL-0650_RLatLon0.09_PT067H.grib2 2026-04-27 09:01 616K
20260427T06Z_MSC_RDPS_WindSpeed_IsbL-0700_RLatLon0.09_PT067H.grib2 2026-04-27 09:01 684K
20260427T06Z_MSC_RDPS_WindSpeed_IsbL-0750_RLatLon0.09_PT067H.grib2 2026-04-27 09:01 712K
20260427T06Z_MSC_RDPS_WindSpeed_IsbL-0800_RLatLon0.09_PT067H.grib2 2026-04-27 09:01 751K
20260427T06Z_MSC_RDPS_WindSpeed_IsbL-0850_RLatLon0.09_PT067H.grib2 2026-04-27 09:01 803K
20260427T06Z_MSC_RDPS_WindSpeed_IsbL-0875_RLatLon0.09_PT067H.grib2 2026-04-27 09:01 823K
20260427T06Z_MSC_RDPS_WindSpeed_IsbL-0900_RLatLon0.09_PT067H.grib2 2026-04-27 09:01 838K
20260427T06Z_MSC_RDPS_WindSpeed_IsbL-0925_RLatLon0.09_PT067H.grib2 2026-04-27 09:01 845K
20260427T06Z_MSC_RDPS_WindSpeed_IsbL-0950_RLatLon0.09_PT067H.grib2 2026-04-27 09:01 846K
20260427T06Z_MSC_RDPS_WindSpeed_IsbL-0970_RLatLon0.09_PT067H.grib2 2026-04-27 09:01 848K
20260427T06Z_MSC_RDPS_WindSpeed_IsbL-0985_RLatLon0.09_PT067H.grib2 2026-04-27 09:01 843K
20260427T06Z_MSC_RDPS_WindSpeed_IsbL-1000_RLatLon0.09_PT067H.grib2 2026-04-27 09:01 837K
20260427T06Z_MSC_RDPS_WindSpeed_IsbL-1015_RLatLon0.09_PT067H.grib2 2026-04-27 09:01 827K
20260427T06Z_MSC_RDPS_WindU_AGL-10m_RLatLon0.09_PT067H.grib2 2026-04-27 09:01 424K
20260427T06Z_MSC_RDPS_WindU_AGL-120m_RLatLon0.09_PT067H.grib2 2026-04-27 09:01 525K
20260427T06Z_MSC_RDPS_WindU_AGL-40m_RLatLon0.09_PT067H.grib2 2026-04-27 09:01 528K
20260427T06Z_MSC_RDPS_WindU_AGL-80m_RLatLon0.09_PT067H.grib2 2026-04-27 09:01 526K
20260427T06Z_MSC_RDPS_WindU_IsbL-0001_RLatLon0.09_PT067H.grib2 2026-04-27 09:01 292K
20260427T06Z_MSC_RDPS_WindU_IsbL-0005_RLatLon0.09_PT067H.grib2 2026-04-27 09:01 287K
20260427T06Z_MSC_RDPS_WindU_IsbL-0010_RLatLon0.09_PT067H.grib2 2026-04-27 09:01 298K
20260427T06Z_MSC_RDPS_WindU_IsbL-0020_RLatLon0.09_PT067H.grib2 2026-04-27 09:01 314K
20260427T06Z_MSC_RDPS_WindU_IsbL-0030_RLatLon0.09_PT067H.grib2 2026-04-27 09:01 352K
20260427T06Z_MSC_RDPS_WindU_IsbL-0050_RLatLon0.09_PT067H.grib2 2026-04-27 09:01 344K
20260427T06Z_MSC_RDPS_WindU_IsbL-0100_RLatLon0.09_PT067H.grib2 2026-04-27 09:01 441K
20260427T06Z_MSC_RDPS_WindU_IsbL-0150_RLatLon0.09_PT067H.grib2 2026-04-27 09:01 404K
20260427T06Z_MSC_RDPS_WindU_IsbL-0175_RLatLon0.09_PT067H.grib2 2026-04-27 09:01 430K
20260427T06Z_MSC_RDPS_WindU_IsbL-0200_RLatLon0.09_PT067H.grib2 2026-04-27 09:01 447K
20260427T06Z_MSC_RDPS_WindU_IsbL-0225_RLatLon0.09_PT067H.grib2 2026-04-27 09:01 451K
20260427T06Z_MSC_RDPS_WindU_IsbL-0250_RLatLon0.09_PT067H.grib2 2026-04-27 09:01 352K
20260427T06Z_MSC_RDPS_WindU_IsbL-0275_RLatLon0.09_PT067H.grib2 2026-04-27 09:01 368K
20260427T06Z_MSC_RDPS_WindU_IsbL-0300_RLatLon0.09_PT067H.grib2 2026-04-27 09:01 362K
20260427T06Z_MSC_RDPS_WindU_IsbL-0350_RLatLon0.09_PT067H.grib2 2026-04-27 09:01 370K
20260427T06Z_MSC_RDPS_WindU_IsbL-0400_RLatLon0.09_PT067H.grib2 2026-04-27 09:01 475K
20260427T06Z_MSC_RDPS_WindU_IsbL-0450_RLatLon0.09_PT067H.grib2 2026-04-27 09:01 473K
20260427T06Z_MSC_RDPS_WindU_IsbL-0500_RLatLon0.09_PT067H.grib2 2026-04-27 09:01 458K
20260427T06Z_MSC_RDPS_WindU_IsbL-0550_RLatLon0.09_PT067H.grib2 2026-04-27 09:01 457K
20260427T06Z_MSC_RDPS_WindU_IsbL-0600_RLatLon0.09_PT067H.grib2 2026-04-27 09:01 465K
20260427T06Z_MSC_RDPS_WindU_IsbL-0650_RLatLon0.09_PT067H.grib2 2026-04-27 09:01 484K
20260427T06Z_MSC_RDPS_WindU_IsbL-0700_RLatLon0.09_PT067H.grib2 2026-04-27 09:01 506K
20260427T06Z_MSC_RDPS_WindU_IsbL-0750_RLatLon0.09_PT067H.grib2 2026-04-27 09:01 532K
20260427T06Z_MSC_RDPS_WindU_IsbL-0800_RLatLon0.09_PT067H.grib2 2026-04-27 09:01 567K
20260427T06Z_MSC_RDPS_WindU_IsbL-0850_RLatLon0.09_PT067H.grib2 2026-04-27 09:01 613K
20260427T06Z_MSC_RDPS_WindU_IsbL-0875_RLatLon0.09_PT067H.grib2 2026-04-27 09:01 629K
20260427T06Z_MSC_RDPS_WindU_IsbL-0900_RLatLon0.09_PT067H.grib2 2026-04-27 09:01 640K
20260427T06Z_MSC_RDPS_WindU_IsbL-0925_RLatLon0.09_PT067H.grib2 2026-04-27 09:01 649K
20260427T06Z_MSC_RDPS_WindU_IsbL-0950_RLatLon0.09_PT067H.grib2 2026-04-27 09:01 645K
20260427T06Z_MSC_RDPS_WindU_IsbL-0970_RLatLon0.09_PT067H.grib2 2026-04-27 09:01 643K
20260427T06Z_MSC_RDPS_WindU_IsbL-0985_RLatLon0.09_PT067H.grib2 2026-04-27 09:01 778K
20260427T06Z_MSC_RDPS_WindU_IsbL-1000_RLatLon0.09_PT067H.grib2 2026-04-27 09:01 774K
20260427T06Z_MSC_RDPS_WindU_IsbL-1015_RLatLon0.09_PT067H.grib2 2026-04-27 09:01 766K
20260427T06Z_MSC_RDPS_WindV_AGL-10m_RLatLon0.09_PT067H.grib2 2026-04-27 09:01 426K
20260427T06Z_MSC_RDPS_WindV_AGL-120m_RLatLon0.09_PT067H.grib2 2026-04-27 09:01 525K
20260427T06Z_MSC_RDPS_WindV_AGL-40m_RLatLon0.09_PT067H.grib2 2026-04-27 09:01 528K
20260427T06Z_MSC_RDPS_WindV_AGL-80m_RLatLon0.09_PT067H.grib2 2026-04-27 09:01 526K
20260427T06Z_MSC_RDPS_WindV_IsbL-0001_RLatLon0.09_PT067H.grib2 2026-04-27 09:01 244K
20260427T06Z_MSC_RDPS_WindV_IsbL-0005_RLatLon0.09_PT067H.grib2 2026-04-27 09:01 287K
20260427T06Z_MSC_RDPS_WindV_IsbL-0010_RLatLon0.09_PT067H.grib2 2026-04-27 09:01 300K
20260427T06Z_MSC_RDPS_WindV_IsbL-0020_RLatLon0.09_PT067H.grib2 2026-04-27 09:01 315K
20260427T06Z_MSC_RDPS_WindV_IsbL-0030_RLatLon0.09_PT067H.grib2 2026-04-27 09:01 316K
20260427T06Z_MSC_RDPS_WindV_IsbL-0050_RLatLon0.09_PT067H.grib2 2026-04-27 09:01 344K
20260427T06Z_MSC_RDPS_WindV_IsbL-0100_RLatLon0.09_PT067H.grib2 2026-04-27 09:01 338K
20260427T06Z_MSC_RDPS_WindV_IsbL-0150_RLatLon0.09_PT067H.grib2 2026-04-27 09:01 402K
20260427T06Z_MSC_RDPS_WindV_IsbL-0175_RLatLon0.09_PT067H.grib2 2026-04-27 09:01 429K
20260427T06Z_MSC_RDPS_WindV_IsbL-0200_RLatLon0.09_PT067H.grib2 2026-04-27 09:01 344K
20260427T06Z_MSC_RDPS_WindV_IsbL-0225_RLatLon0.09_PT067H.grib2 2026-04-27 09:01 347K
20260427T06Z_MSC_RDPS_WindV_IsbL-0250_RLatLon0.09_PT067H.grib2 2026-04-27 09:01 374K
20260427T06Z_MSC_RDPS_WindV_IsbL-0275_RLatLon0.09_PT067H.grib2 2026-04-27 09:01 389K
20260427T06Z_MSC_RDPS_WindV_IsbL-0300_RLatLon0.09_PT067H.grib2 2026-04-27 09:01 384K
20260427T06Z_MSC_RDPS_WindV_IsbL-0350_RLatLon0.09_PT067H.grib2 2026-04-27 09:01 369K
20260427T06Z_MSC_RDPS_WindV_IsbL-0400_RLatLon0.09_PT067H.grib2 2026-04-27 09:01 370K
20260427T06Z_MSC_RDPS_WindV_IsbL-0450_RLatLon0.09_PT067H.grib2 2026-04-27 09:01 369K
20260427T06Z_MSC_RDPS_WindV_IsbL-0500_RLatLon0.09_PT067H.grib2 2026-04-27 09:01 472K
20260427T06Z_MSC_RDPS_WindV_IsbL-0550_RLatLon0.09_PT067H.grib2 2026-04-27 09:01 473K
20260427T06Z_MSC_RDPS_WindV_IsbL-0600_RLatLon0.09_PT067H.grib2 2026-04-27 09:01 481K
20260427T06Z_MSC_RDPS_WindV_IsbL-0650_RLatLon0.09_PT067H.grib2 2026-04-27 09:01 498K
20260427T06Z_MSC_RDPS_WindV_IsbL-0700_RLatLon0.09_PT067H.grib2 2026-04-27 09:01 504K
20260427T06Z_MSC_RDPS_WindV_IsbL-0750_RLatLon0.09_PT067H.grib2 2026-04-27 09:01 527K
20260427T06Z_MSC_RDPS_WindV_IsbL-0800_RLatLon0.09_PT067H.grib2 2026-04-27 09:01 562K
20260427T06Z_MSC_RDPS_WindV_IsbL-0850_RLatLon0.09_PT067H.grib2 2026-04-27 09:01 609K
20260427T06Z_MSC_RDPS_WindV_IsbL-0875_RLatLon0.09_PT067H.grib2 2026-04-27 09:01 627K
20260427T06Z_MSC_RDPS_WindV_IsbL-0900_RLatLon0.09_PT067H.grib2 2026-04-27 09:01 640K
20260427T06Z_MSC_RDPS_WindV_IsbL-0925_RLatLon0.09_PT067H.grib2 2026-04-27 09:01 786K
20260427T06Z_MSC_RDPS_WindV_IsbL-0950_RLatLon0.09_PT067H.grib2 2026-04-27 09:01 784K
20260427T06Z_MSC_RDPS_WindV_IsbL-0970_RLatLon0.09_PT067H.grib2 2026-04-27 09:01 786K
20260427T06Z_MSC_RDPS_WindV_IsbL-0985_RLatLon0.09_PT067H.grib2 2026-04-27 09:01 781K
20260427T06Z_MSC_RDPS_WindV_IsbL-1000_RLatLon0.09_PT067H.grib2 2026-04-27 09:01 775K
20260427T06Z_MSC_RDPS_WindV_IsbL-1015_RLatLon0.09_PT067H.grib2 2026-04-27 09:01 814K